Location: *
(40.7190°N, 4.2480°W)
Time: 09:31:24
(UTC+00:00)

STARLINK-1082 - Pass Details

Date: 18 February 2020
Orbit: 548 x 551 km, 53.0° (Epoch: 10 April)

Event Time Altitude Azimuth Distance (km) Brightness Sun altitude
Exits shadow 04:22:30 23° 66° (ENE) 1,203 5.9 -31.9°
Drops below altitude 10° 04:24:11 10° 58° (ENE) 1,829 7.1 -31.6°
Enters shadow 05:23:58 -64° 236° (SW) 12,019 10.4 -20.3°
